Volver al catálogo

OPS 4682 DEB

ActivoPO
NORAD 58027·DEBRIS·🇺🇸 United States

Lanzado Apr 3, 1965 desde Vandenberg Space Force Base

Loading…

Próximos Pases (próximas 24 horas)

TLE

EnvejeciendoSource: Space-Track

Época: Sep 8, 2026, 03:22 UTC

1 58027U 65027HQ  26251.14033411  .00000710  00000-0  23954-2 0  9998
2 58027  90.2575  17.5126 0034411 181.0455 357.4299 12.98051219587097

Sigue OPS 4682 DEB en tiempo real con AllMySat

Download on the App Store